Regional Weather Roundup
Issued by NWS Upton, NY

Current Version | Previous Version | Graphics & Text | Print | Product List | Glossary Off
Versions: 1 2 3 4 5 6 7 8 9 10 11 12 13 14 15 16 17 18 19 20 21 22 23 24 25 26 27

000
ASUS41 KOKX 201108
RWROKX

REGIONAL WEATHER ROUNDUP
NATIONAL WEATHER SERVICE NEW YORK NY
600 AM EST FRI JAN 20 2017

NOTE: "FAIR" INDICATES FEW OR NO CLOUDS BELOW 12,000 FEET WITH NO
SIGNIFICANT WEATHER AND/OR OBSTRUCTIONS TO VISIBILITY.

NYZ071-072-176-178-NJZ106-104-201200-
NEW YORK CITY METRO AREA

CITY           SKY/WX    TMP DP  RH WIND       PRES   REMARKS
Central Park   CLOUDY    40  31  70 E3        30.02F
Wall St Helipt CLOUDY    41  32  70 NE7       30.02F
Bronx Bot Gard NOT AVBL
LaGuardia APRT CLOUDY    41  31  67 NE6       30.01S
Kennedy INTL   CLOUDY    42  28  57 NE3       30.02F
Breezy Point     N/A     39 N/A N/A NE3         N/A
Newark/Liberty CLOUDY    41  31  67 E3        30.00F
Teterboro      CLOUDY    41  31  67 NE3       30.00F
$$

NYZ177-179-078>081-201200-
LONG ISLAND NEW YORK

CITY           SKY/WX    TMP DP  RH WIND       PRES   REMARKS
Jones Beach      N/A     39 N/A N/A NE3         N/A
Matinecock PT  NOT AVBL
Farmingdale    CLOUDY    40  31  70 E5        30.01F
MacArthur/ISP  CLOUDY    40  32  73 NW3       30.01S
Shirley        CLOUDY    39  34  82 CALM      30.02S
Westhampton    CLOUDY    38  32  79 CALM      30.03R
Southampton    NOT AVBL
Bridgehampton  NOT AVBL
East Hampton   CLOUDY    37  33  85 CALM      30.01R
Montauk          N/A     40  32  73 CALM      30.02R
$$

NYZ052-065-067-201200-
HUDSON VALLEY

CITY           SKY/WX    TMP DP  RH WIND       PRES   REMARKS
White Plains   CLOUDY    38  29  70 NE6       29.99F WCI  33
Newburgh       CLOUDY    36  30  80 SE6       30.00F WCI  31
Montgomery     CLOUDY    37  30  75 E5        29.98F WCI  33
Poughkeepsie   CLOUDY    36  29  75 E3        30.00F
Albany         CLOUDY    33  30  88 CALM      30.01S
$$

NJZ001-105-106-008-010-013-015-019>022-104-201200-
NEW JERSEY

CITY           SKY/WX    TMP DP  RH WIND       PRES   REMARKS
Newark/Liberty CLOUDY    41  31  67 E3        30.00F
Teterboro      CLOUDY    41  31  67 NE3       30.00F
Caldwell       CLOUDY    38  31  76 E5        30.00F WCI  34
Somerville     CLOUDY    31  30  96 CALM      29.98F
Linden         CLOUDY    40  32  73 CALM      30.01S
Sussex         CLOUDY    33  33 100 CALM      29.97F
Andover          N/A     33  31  92 CALM      29.97F
Trenton        CLOUDY    31  29  92 CALM      29.99F
Millville      PTCLDY    28  28 100 CALM      30.00S
Atlantic City  CLOUDY    30  26  85 CALM      29.99F
Wrightstown    CLEAR     28  26  94 CALM      29.97F
Toms River     CLOUDY    25  23  92 CALM      30.00F
Belmar         CLOUDY    36  34  92 E5        30.00F WCI  32
$$

PAZ047>061-062-071-201200-
EASTERN PENNSYLVANIA

CITY           SKY/WX    TMP DP  RH WIND       PRES   REMARKS
Philadelphia   CLOUDY    33  31  92 CALM      30.01S
Allentown      FOG       29  26  89 CALM      29.98F VSB 3/4
Scranton       CLOUDY    36  32  85 VRB3      29.93F
$$

CTZ002-004>006-009-010-012-RIZ004-006-007-MAZ004-011-015-201200-
SOUTHERN NEW ENGLAND
 IN CT

CITY           SKY/WX    TMP DP  RH WIND       PRES   REMARKS
Bradley INTL   CLOUDY    36  32  85 CALM      30.01F
Hartford       CLOUDY    35  32  88 CALM      30.01F
Danbury        CLOUDY    37  28  70 CALM      30.01S
Wtrbury/Oxford CLOUDY    36  28  75 CALM      30.00S
Bridgeport     CLOUDY    41  31  67 CALM      30.02R
Meriden        CLOUDY    37  31  78 CALM      30.01F
New Haven      CLOUDY    40  32  73 CALM      30.01S
Chester        CLOUDY    37  32  81 CALM      30.00S
Groton         CLOUDY    38  31  76 N6        30.01R WCI  33
Wilimantic     CLOUDY    33  31  92 CALM      30.02S

 IN RI

CITY           SKY/WX    TMP DP  RH WIND       PRES   REMARKS
Providence     CLOUDY    30  26  85 N3        30.01F
Block Island   NOT AVBL
Westerly       CLOUDY    38  30  73 CALM      30.01F
 IN MA

CITY           SKY/WX    TMP DP  RH WIND       PRES   REMARKS
Boston         CLOUDY    36  29  75 W6        30.02S WCI  31
Worcester      CLOUDY    30  26  85 NW5       29.98S WCI  25
Westfield      CLOUDY    33  32  96 CALM      30.01S
Provincetown   CLOUDY    41  30  65 N7        30.01F
Nantucket      CLOUDY    38  32  79 NW8       30.00S WCI  32
$$

ANZ330-335-338-340-345-350-353-355-201200-
COASTAL MARINE OBSERVATIONS


STATION/POSITION TIME  SKY/WX   TEMP    WIND        PRES    VSBY  WAVE
                                AIR SEA DIR/SP/G                  HT/PER
                 (UTC)          (F)     (DEG/KT/KT) (MB)    (MI)  (FT/S)
NY HARB ENTRANCE 0950            42 44   60/  8/ 10 1016.4          4/11
20 S FIRE ISLAND 1050            42 45   40/ 10/ 10 1015.8          6/14
GREAT SOUTH BAY  NOT AVBL
23 SSW MONTAUK P 0950            43 48   40/  8/ 10 1016.2          5/11
15 E BARNEGAT LI 1030               47                N/A           5/11
HUDSON CANYON    0950            47 51              1015.7          5/11
KINGS POINT      1042            39 39              1016.1
EXECUTION ROCKS  1045            40      20/  4/  6   N/A
CENTRAL LI SOUND 1030            40     340/  4/  6   N/A           0
EASTERN LI SOUND NOT AVBL
ROBBINS REEF     1042            40      90/  6/  7 1016.3
$$


>>>>>>>>>>>>>>>>>>>>>>>>>>>> KEY <<<<<<<<<<<<<<<<<<<<<<<<<<<
>                                                          <
>     SKY/WX - Sky Condition/Present Weather               <
>     TMP    - Temperature in Fahrenheit                   <
>     DP     - Dew Point in Fahrenheit                     <
>     RH     - Relative Humidity in Percent                <
>     WIND   - Direction (from) and Speed in MPH           <
>     PRES   - Mean Sea Level Pressure (inches of Hg)      <
>     WCI    - Wind Chill Index                            <
>     VSB    - VISIBILITY IN MILES                         <
>     HX     - HEAT INDEX                                  <
>     TC     - TEMPERATURE IN CELSIUS                      <
>     VRB    - VARIABLE WIND DIRECTION                     <
>                                                          <
>>>>>>>>>>>>>>>>>>>>>>>>>>>> KEY <<<<<<<<<<<<<<<<<<<<<<<<<<<




USA.gov is the U.S. government's official web portal to all federal, state and local government web resources and services.